User: anonymous   Login
Location: Unspecified
(0.0000°N, 0.0000°E)
Time: 12:05:29
(UTC+00:00)
Language:

Kosmos-2310 - Orbit

View from above orbital plane
View from above orbital plane
View from above satellite
View from above satellite

Ground track
Ground track

The orbit data is extracted from the following two-line orbital elements,

1 23526U 95012A   18116.18350122  .00000032  00000-0  18887-4 0  9995
2 23526  82.9471 179.9210 0020433 269.0036 105.5606 13.71866980156372
Epoch (UTC): 26 April 2018 04:24:14
Eccentricity: 0.0020433
inclination: 82.9471°
perigee height: 978 km
apogee height: 1008 km
right ascension of ascending node: 179.9210°
argument of perigee: 269.0036°
revolutions per day: 13.71866980
mean anomaly at epoch: 105.5606°
orbit number at epoch: 15637

The dashed part of the orbit path shows where the satellite is in the earth's shadow,  

DLR